Regional Weather Roundup
Issued by NWS

Home | Current Version | Previous Version | Graphics & Text | Print | Product List | Glossary On
Versions: 1 2 3 4 5 6 7 8 9 10 11 12 13 14 15 16 17 18 19 20 21 22 23 24 25 26 27 28 29 30 31 32 33 34 35 36 37 38 39 40 41 42 43 44 45 46 47 48 49 50
000
ASUS45 KCYS 161110
RWRWY

WYOMING REGIONAL WEATHER ROUNDUP
NATIONAL WEATHER SERVICE CHEYENNE WY
500 AM MDT TUE SEP 16 2014

NOTE:  "FAIR" INDICATES FEW OR NO CLOUDS BELOW 12,000 FEET
WITH NO SIGNIFICANT WEATHER AND/OR OBSTRUCTIONS TO VISIBILITY.

WYZ001-161200-
YELLOWSTONE NATIONAL PARK

CITY           SKY/WX    TMP DP  RH WIND       PRES   REMARKS
LK YELLOWSTONE   N/A     32  29  88 CALM      30.35S
W YELLOWSTONE  NOT AVBL

$$
WYZ002>013-054>058-071-098>099-161200-
NORTHERN WYOMING

CITY           SKY/WX    TMP DP  RH WIND       PRES   REMARKS
JACKSON        PTCLDY    36  30  80 N7        30.29S WCI  30
CODY           CLEAR     54  37  54 S7        30.13S
GREYBULL       CLEAR     48  42  80 SE5       30.11S
WORLAND        CLEAR     45  42  89 W6        30.12S
SHERIDAN       CLEAR     42  37  82 CALM      30.07S
BUFFALO        CLEAR     53  34  48 W10       30.13F
GILLETTE       PTCLDY    47  41  80 CALM      30.10S
HULETT         FAIR      46  41  81 MISG      30.09
NEWCASTLE      FAIR      48  41  76 CALM      30.10

$$
WYZ014>020-022>026-101>103-161200-
CENTRAL WYOMING

CITY           SKY/WX    TMP DP  RH WIND       PRES   REMARKS
BIG PINEY      PTCLDY    40  26  57 CALM      30.33S
PINEDALE       MOSUNNY   32  30  93 W6        30.33S WCI  26
DUBOIS         FAIR      43  27  52 NW12      30.30S
LANDER         CLEAR     55  33  43 NW5       30.18F
RIVERTON       CLEAR     52  35  52 W7        30.20S
CASPER         MOCLDY    47  39  74 W8        30.18S
DOUGLAS        PTCLDY    46  42  86 NW10      30.15R

$$
WYZ021-027>030-104>119-161200-
SOUTHERN WYOMING

CITY           SKY/WX    TMP DP  RH WIND       PRES   REMARKS
EVANSTON       PTCLDY    53  30  41 SE6       30.30F
KEMMERER       SUNNY     43  32  65 N12       30.33S
FORT BRIDGER   FAIR      55  32  41 W5        30.33S
ROCK SPRINGS   PTCLDY    55  33  43 CALM      30.30S
DIXON          PTSUNNY   46  40  77 CALM      30.33S
RAWLINS        PTCLDY    53  33  46 CALM      30.28S
SARATOGA       CLOUDY    48  37  66 SE6       30.31S
LARAMIE        CLOUDY    46  36  68 S10       30.29S
CHEYENNE       CLEAR     58  38  47 W14       30.20S
TORRINGTON     PTCLDY    47  46  97 E6        30.07F
PINE BLUFFS    FAIR      46  45  93 S7        30.15F

$$



USA.gov is the U.S. government's official web portal to all federal, state and local government web resources and services.